Location: Sungai Dangang
(2.7500°N, 113.8333°E)
Time: 18:56:43
(UTC+00:00)

Cosmos 1892 - Pass Details

Date: 16 May 2021
Orbit: 503 x 522 km, 82.5° (Epoch: 20 June)

Event Time Altitude Azimuth Distance (km) Brightness Sun altitude
Exits shadow 21:26:54 14° 221° (SW) 1,457 4.4 -11.8°
Maximum altitude 21:29:24 28° 274° (W) 970 3.6 -11.2°
Drops below altitude 10° 21:32:38 10° 334° (NNW) 1,707 5.3 -10.5°
Sets 21:34:58 0° 346° (NNW) 2,591 6.3 -9.9°
